Flag for Canada Weather past 2 weeks in Dieppe, New Brunswick, Canada

Now
64 °F

Clear.


Feels Like: 64 °F
Forecast: 52 / 69 °F
Wind: 16 mph from West

Location: Moncton

Current Time: Sep 1, 2015 at 1:06:46 AM

Latest Report: Sep 1, 2015 at 12:00 AM


Visibility: 15 mi

Pressure: 29.69 "Hg

Humidity: 73%

Dew point: 55 °F

Location of DieppeLocation

Historic Weather in Dieppe — Graph

°F

Dieppe temperature yesterday

Maximum temperature yesterday: 81 °F (at 2:00 PM)
Minimum temperature yesterday: 57 °F (at 5:00 AM)
Average temperature yesterday: 69 °F

Past Weeks' High & Low Weather Summary

 TemperatureHumidityPressure
High91 °F (Aug 18, 4:00 PM)100% (Aug 19, 4:00 AM)30.20 "Hg (Aug 19, 4:00 AM)
Low55 °F (Aug 28, 6:00 AM)36% (Aug 17, 4:00 PM)29.59 "Hg (Aug 31, 8:00 PM)
Average71 °F81%30.00 "Hg
* Reported Midnight between Aug 16 and Aug 17 — Midnight between Aug 31 and Sep 1, Dieppe, Weather by CustomWeather, © 2015

Note: Actual official high and low records may vary slightly from our data, if they occured in-between our weather recording intervals... More about our weather records

Advertising

Dieppe weather history for previous 24 hours

 ConditionsComfort  
Time TempWeatherWind HumidityBarometerVisibility
12:00 AM
Tue, Sep 1
64 °FClear.16 mph73%29.69 "Hg15 mi
11:00 PM
Mon, Aug 31
64 °FClear.16 mph73%29.69 "Hg15 mi
10:00 PM66 °FPassing clouds.15 mph73%29.68 "Hg15 mi
9:00 PM66 °FPassing clouds.14 mph83%29.66 "Hg15 mi
8:00 PM75 °FPartly sunny.16 mph65%29.59 "Hg15 mi
7:00 PM75 °FScattered clouds.16 mph65%29.60 "Hg15 mi
6:00 PM77 °FScattered clouds.17 mph61%29.61 "Hg15 mi
5:00 PM77 °FPartly sunny.20 mph57%29.63 "Hg15 mi
4:00 PM81 °FBroken clouds.22 mph51%29.65 "Hg12 mi
3:00 PM81 °FBroken clouds.18 mph51%29.67 "Hg15 mi
2:00 PM81 °FScattered clouds.20 mph51%29.70 "Hg15 mi
1:00 PM79 °FScattered clouds.21 mph51%29.73 "Hg15 mi
12:00 PM77 °FPassing clouds.17 mph57%29.76 "Hg15 mi
11:00 AM75 °FPassing clouds.14 mph65%29.79 "Hg15 mi
10:00 AM72 °FSunny.12 mph73%29.80 "Hg15 mi
9:00 AM64 °FSunny.9 mph88%29.82 "Hg15 mi
8:00 AM59 °FScattered clouds.8 mph100%29.84 "Hg10 mi
7:00 AM57 °FPassing clouds.6 mph100%29.86 "Hg12 mi
6:00 AM57 °FPassing clouds.5 mph100%29.86 "Hg15 mi
5:00 AM57 °FClear.7 mph100%29.87 "Hg15 mi
4:00 AM59 °FClear.8 mph94%29.88 "Hg15 mi
3:00 AM61 °FClear.7 mph94%29.89 "Hg15 mi
2:00 AM61 °FClear.7 mph94%29.90 "Hg15 mi
1:00 AM63 °FClear.8 mph88%29.92 "Hg15 mi
Weather by CustomWeather, © 2015

See weather overviewHow to use our weather pages